Date String (YYYY-MM-DD hh:mm:ss) UTC,Instrument flags,Ambient pressure (hPa),Sample flow (lpm),Bypass flow (lpm),Sample temperature (°C),Ambient temperature (°C),ASC tube jacket temperature (°C),LED temperature (°C),Box temperature (°C),Sample RH (%),Span deviation,Mass concentration (μg/m³),Mass concentration (μg/m³),Mass concentration (μg/m³)
DateTimeUTC,F1_M11,P_M11,Q1_M11,Q2_M11,T1_M11,T2_M11,T3_M11,T4_M11,T5_M11,U1_M11,ZSPAN_M11,X2_M11,X0_M11,X1_M11
2021-12-29 01:00:00,,0811.7,5.01,0.00,22.4,22.2,00.0,31.2,24.1,06.0,0000.0,0003.30,0019.87,0001.17
2021-12-29 01:01:00,,0811.7,4.99,0.00,22.4,22.1,00.0,31.2,24.1,06.0,0000.0,0003.29,0021.08,0001.19
2021-12-29 01:02:00,,0811.7,5.01,0.00,22.4,22.0,00.0,31.2,24.1,06.0,0000.0,0003.23,0021.90,0001.17
2021-12-29 01:03:00,,0811.7,5.00,0.00,22.3,21.9,00.0,31.2,24.0,06.0,0000.0,0003.22,0020.86,0001.08
2021-12-29 01:04:00,,0811.7,5.01,0.00,22.3,21.9,00.0,31.2,24.0,06.0,0000.0,0003.22,0020.19,0001.03
2021-12-29 01:05:00,,0811.7,4.99,0.00,22.3,21.8,00.0,31.2,24.0,06.0,0000.0,0003.22,0019.65,0001.04
2021-12-29 01:06:00,,0811.8,4.99,0.00,22.3,21.8,00.0,31.3,23.9,06.0,0000.0,0003.19,0019.19,0001.05
2021-12-29 01:07:00,,0811.8,5.01,0.00,22.3,21.7,00.0,31.3,23.9,05.9,0000.0,0003.15,0019.26,0001.05
2021-12-29 01:08:00,,0811.9,4.99,0.00,22.3,21.7,00.0,31.3,23.9,05.9,0000.0,0003.17,0018.69,0001.04
2021-12-29 01:09:00,,0811.8,5.01,0.00,22.2,21.6,00.0,31.3,23.8,05.9,0000.0,0003.12,0016.89,0001.05
2021-12-29 01:10:00,,0811.8,4.99,0.00,22.2,21.6,00.0,31.3,23.8,05.9,0000.0,0003.09,0015.40,0001.05
2021-12-29 01:11:00,,0811.8,4.99,0.00,22.2,21.6,00.0,31.3,23.8,06.0,0000.0,0002.98,0013.80,0001.05
2021-12-29 01:12:00,,0811.9,5.00,0.00,22.2,21.6,00.0,31.2,23.8,06.0,0000.0,0002.91,0011.96,0001.05
2021-12-29 01:13:00,,0811.8,5.00,0.00,22.2,21.5,00.0,31.2,23.8,05.9,0000.0,0002.90,0010.86,0001.03
2021-12-29 01:14:00,,0811.9,5.01,0.00,22.2,21.5,00.0,31.2,23.8,06.0,0000.0,0002.85,0011.02,0001.01
2021-12-29 01:15:00,,0812.0,4.99,0.00,22.1,21.5,00.0,31.2,23.8,06.0,0000.0,0002.76,0011.50,0000.99
2021-12-29 01:16:00,,0812.0,5.00,0.00,22.1,21.5,00.0,31.2,23.8,06.0,0000.0,0002.78,0011.38,0000.96
2021-12-29 01:17:00,,0812.0,5.00,0.00,22.1,21.4,00.0,31.2,23.8,06.0,0000.0,0002.87,0011.28,0000.94
2021-12-29 01:18:00,,0811.9,5.00,0.00,22.1,21.4,00.0,31.2,23.8,06.1,0000.0,0002.81,0010.71,0000.92
2021-12-29 01:19:00,,0812.0,4.99,0.00,22.1,21.5,00.0,31.2,23.8,06.1,0000.0,0002.76,0010.28,0000.91
2021-12-29 01:20:00,,0812.0,5.00,0.00,22.1,21.5,00.0,31.2,23.8,06.1,0000.0,0002.82,0010.99,0000.91
2021-12-29 01:21:00,,0812.0,5.00,0.00,22.1,21.4,00.0,31.2,23.8,06.1,0000.0,0002.88,0011.75,0000.90
2021-12-29 01:22:00,,0812.1,5.00,0.00,22.1,21.4,00.0,31.2,23.8,06.1,0000.0,0002.89,0012.06,0000.89
2021-12-29 01:23:00,,0812.0,4.98,0.00,22.1,21.4,00.0,31.2,23.8,06.1,0000.0,0002.94,0013.10,0000.88
2021-12-29 01:24:00,,0812.1,5.00,0.00,22.1,21.4,00.0,31.2,23.8,06.1,0000.0,0002.93,0013.75,0000.88
2021-12-29 01:25:00,,0812.1,5.00,0.00,22.1,21.4,00.0,31.1,23.8,06.1,0000.0,0002.94,0013.76,0000.88
2021-12-29 01:26:00,,0812.1,5.00,0.00,22.1,21.4,00.0,31.1,23.8,06.1,0000.0,0002.93,0013.70,0000.86
2021-12-29 01:27:00,,0812.1,4.99,0.00,22.1,21.4,00.0,31.1,23.8,06.1,0000.0,0002.84,0013.96,0000.85
2021-12-29 01:28:00,,0812.1,5.02,0.00,22.1,21.4,00.0,31.1,23.8,06.1,0000.0,0002.74,0013.05,0000.84
2021-12-29 01:29:00,,0812.1,4.98,0.00,22.1,21.5,00.0,31.1,23.8,06.1,0000.0,0002.78,0013.18,0000.84
2021-12-29 01:30:00,,0812.2,5.00,0.00,22.2,22.2,00.0,31.2,24.0,06.0,0000.0,0002.88,0014.41,0000.86
2021-12-29 01:31:00,,0812.2,5.01,0.00,22.3,22.8,00.0,31.2,24.2,06.0,0000.0,0002.97,0014.43,0000.87
2021-12-29 01:32:00,,0812.1,4.99,0.00,22.4,23.0,00.0,31.2,24.4,06.0,0000.0,0003.00,0014.14,0000.88
2021-12-29 01:33:00,,0812.1,4.99,0.00,22.5,22.8,00.0,31.3,24.4,06.0,0000.0,0003.02,0014.66,0000.88
2021-12-29 01:34:00,,0812.1,5.00,0.00,22.5,22.6,00.0,31.3,24.3,06.0,0000.0,0002.97,0013.64,0000.88
2021-12-29 01:35:00,,0812.1,5.01,0.00,22.5,22.5,00.0,31.3,24.3,06.0,0000.0,0003.02,0013.47,0000.88
2021-12-29 01:36:00,,0812.1,4.99,0.00,22.5,22.3,00.0,31.3,24.3,06.0,0000.0,0002.98,0014.75,0000.89
2021-12-29 01:37:00,,0812.1,5.01,0.00,22.5,22.2,00.0,31.3,24.3,06.0,0000.0,0002.96,0016.00,0000.90
2021-12-29 01:38:00,,0812.2,4.99,0.00,22.5,22.1,00.0,31.3,24.2,05.9,0000.0,0002.94,0017.03,0000.88
2021-12-29 01:39:00,,0812.1,5.02,0.00,22.5,22.1,00.0,31.3,24.2,06.0,0000.0,0002.98,0017.94,0000.88
2021-12-29 01:40:00,,0812.1,4.99,0.00,22.5,22.0,00.0,31.4,24.2,06.0,0000.0,0003.02,0018.48,0000.87
2021-12-29 01:41:00,,0812.1,5.00,0.00,22.5,21.9,00.0,31.4,24.2,06.0,0000.0,0002.96,0017.27,0000.86
2021-12-29 01:42:00,,0812.1,5.01,0.00,22.4,21.9,00.0,31.4,24.1,06.0,0000.0,0002.96,0017.49,0000.85
2021-12-29 01:43:00,,0812.1,4.99,0.00,22.4,21.8,00.0,31.4,24.1,06.0,0000.0,0002.93,0017.37,0000.85
2021-12-29 01:44:00,,0812.1,4.99,0.00,22.4,21.8,00.0,31.4,24.1,06.0,0000.0,0002.89,0016.83,0000.86
2021-12-29 01:45:00,,0812.2,5.02,0.00,22.4,21.8,00.0,31.4,24.1,06.0,0000.0,0002.91,0017.14,0000.86
2021-12-29 01:46:00,,0812.2,4.99,0.00,22.4,21.7,00.0,31.4,24.1,06.0,0000.0,0002.87,0017.88,0000.86
2021-12-29 01:47:00,,0812.2,4.99,0.00,22.4,21.7,00.0,31.4,24.0,06.0,0000.0,0002.87,0018.15,0000.86
2021-12-29 01:48:00,,0812.2,5.00,0.00,22.4,21.7,00.0,31.4,24.0,06.0,0000.0,0002.94,0017.05,0000.87
2021-12-29 01:49:00,,0812.1,5.01,0.00,22.4,21.7,00.0,31.4,24.0,06.0,0000.0,0002.96,0015.68,0000.89
2021-12-29 01:50:00,,0812.1,5.00,0.00,22.3,21.6,00.0,31.4,24.0,06.0,0000.0,0003.00,0014.89,0000.92
2021-12-29 01:51:00,,0812.1,4.97,0.00,22.3,21.6,00.0,31.4,24.0,06.0,0000.0,0002.98,0014.50,0000.92
2021-12-29 01:52:00,,0812.2,5.02,0.00,22.3,21.6,00.0,31.4,24.0,06.0,0000.0,0003.06,0014.99,0000.93
2021-12-29 01:53:00,,0812.1,4.99,0.00,22.3,21.6,00.0,31.3,24.0,06.0,0000.0,0003.04,0015.05,0000.95
2021-12-29 01:54:00,,0812.2,5.00,0.00,22.3,21.5,00.0,31.3,24.0,06.0,0000.0,0003.07,0015.49,0000.96
2021-12-29 01:55:00,,0812.2,5.01,0.00,22.3,21.5,00.0,31.3,24.0,06.0,0000.0,0003.18,0015.50,0000.97
2021-12-29 01:56:00,,0812.2,5.01,0.00,22.3,21.5,00.0,31.3,23.9,06.0,0000.0,0003.18,0015.35,0000.98
2021-12-29 01:57:00,,0812.1,4.99,0.00,22.3,21.5,00.0,31.3,23.9,06.0,0000.0,0003.14,0014.33,0000.99
2021-12-29 01:58:00,,0812.2,5.00,0.00,22.2,21.5,00.0,31.3,23.9,06.0,0000.0,0003.13,0013.03,0001.01
2021-12-29 01:59:00,,0812.2,5.00,0.00,22.2,21.5,00.0,31.3,23.9,06.0,0000.0,0003.08,0013.15,0001.01
